Content
SEND FEEDBACK

Daily
Averages
Monthly
Summary
United States of America

DUNCAN, OKLAHOMA


Home > North America > United States > Oklahoma
Elevation: 1125 feet     Latitude: 34 28N     Longitude: 097 57W

WEATHER
 
SELECT A DAY
Number of Records: 324,383;   Date Range: 3/30/01 - 8/12/14
 
SHARE

PRINT THIS DATA

[ ← Previous Day ]
WEATHER ALMANAC - JANUARY 31, 2013
[ Next Day → ]
[ °C ]   °F
Weather ElementAverageHighLow
Temperature41.1 °F59 °F (2:35 pm)26.6 °F (5:55 am)
Dewpoint27.2 °F32 °F (5:55 pm)19.4 °F (11:55 pm)
Humidity61.9 %93 % (8:15 am)31 % (3:15 pm)
Barometer30.15 in30.37 in (10:35 pm)30.06 in (2:15 am)
Wind Speed7.8 mph20.7 mph (7:35 pm)
Wind Gust28.8 mph (7:35 pm)
Weather ElementAverage
Visibility10 mi
Wind DirectionSE (131.5 °)

Weather ElementTotal
Precipitation---
Heating Degree Days22.2 (Base 65)
Averaged from 71 records on January 31, 2013
WEATHER CONDITIONS BREAKOUT
WIND DIRECTION BREAKOUT
WEATHER BY HOUR - JANUARY 31, 2013
[ °C ]   °F
Local TimeTemperatureDewpointHumidityBarometerVisibilityWind DirectionWind SpeedGust SpeedPrecipitationEventsConditions
12:35 AM33.8 °F23.0 °F65 %30.09 in10.0 miCalmClear
12:55 AM32.0 °F23.0 °F69 %30.08 in10.0 miSSE (160°)3.5 mphClear
1:15 AM32.0 °F24.8 °F75 %30.08 in10.0 miSSE (150°)3.5 mphClear
1:35 AM32.0 °F26.6 °F80 %30.07 in10.0 miCalmClear
1:55 AM32.0 °F24.8 °F75 %30.07 in10.0 miESE (120°)3.5 mphClear
2:15 AM32.0 °F26.6 °F80 %30.06 in10.0 miCalmClear
2:35 AM30.2 °F26.6 °F86 %30.07 in10.0 miCalmClear
2:55 AM32.0 °F26.6 °F80 %30.07 in10.0 miCalmClear
3:15 AM30.2 °F26.6 °F86 %30.07 in10.0 miCalmClear
3:35 AM32.0 °F26.6 °F80 %30.06 in10.0 miESE (120°)3.5 mphClear
3:55 AM32.0 °F26.6 °F80 %30.06 in10.0 miSE (140°)4.6 mphClear
4:15 AM28.4 °F24.8 °F86 %30.07 in10.0 miSouth (190°)3.5 mphClear
4:35 AM28.4 °F24.8 °F86 %30.07 in10.0 miCalmClear
4:55 AM28.4 °F24.8 °F86 %30.07 in10.0 miESE (110°)3.5 mphClear
5:15 AM28.4 °F24.8 °F86 %30.08 in10.0 miSSW (200°)4.6 mphClear
5:35 AM28.4 °F23.0 °F80 %30.07 in10.0 miSouth (170°)5.8 mphClear
5:55 AM26.6 °F23.0 °F86 %30.08 in10.0 miNE (50°)3.5 mphClear
6:15 AM28.4 °F24.8 °F86 %30.08 in10.0 miCalmClear
6:35 AM30.2 °F24.8 °F80 %30.07 in10.0 miCalmClear
6:55 AM26.6 °F23.0 °F86 %30.08 in10.0 miESE (120°)3.5 mphClear
7:15 AM26.6 °F23.0 °F86 %30.08 in10.0 miSE (140°)3.5 mphClear
7:35 AM26.6 °F23.0 °F86 %30.09 in10.0 miCalmClear
7:55 AM28.4 °F24.8 °F86 %30.09 in10.0 miSouth (170°)4.6 mphClear
8:15 AM28.4 °F26.6 °F93 %30.09 in10.0 miSSE (150°)4.6 mphClear
8:35 AM32.0 °F26.6 °F80 %30.09 in10.0 miSouth (180°)3.5 mphClear
8:55 AM32.0 °F28.4 °F87 %30.10 in10.0 miCalmClear
9:15 AM35.6 °F30.2 °F81 %30.10 in10.0 miSW (220°)4.6 mphClear
9:35 AM41.0 °F26.6 °F57 %30.11 in10.0 miWSW (240°)8.1 mphClear
9:55 AM42.8 °F24.8 °F49 %30.12 in10.0 miWSW (250°)8.1 mphClear
10:15 AM44.6 °F23.0 °F43 %30.12 in10.0 miWSW (250°)8.1 mphClear
10:35 AM44.6 °F24.8 °F46 %30.12 in10.0 miSW (220°)6.9 mphClear
10:55 AM46.4 °F24.8 °F43 %30.13 in10.0 miWSW (240°)6.9 mphClear
11:15 AM48.2 °F24.8 °F40 %30.13 in10.0 miWSW (250°)5.8 mphClear
11:35 AM50.0 °F26.6 °F40 %30.12 in10.0 miSW (230°)5.8 mphClear
11:55 AM50.0 °F26.6 °F40 %30.12 in10.0 miWest (260°)5.8 mphClear
12:15 PM51.8 °F26.6 °F38 %30.12 in10.0 miWSW (250°)6.9 mphClear
12:35 PM53.6 °F26.6 °F35 %30.12 in10.0 miSW (220°)6.9 mphClear
12:55 PM53.6 °F28.4 °F38 %30.10 in10.0 miSSW (200°)11.5 mph16.1 mphClear
1:15 PM53.6 °F28.4 °F38 %30.09 in10.0 miWSW (240°)10.4 mphClear
1:35 PM55.4 °F28.4 °F36 %30.09 in10.0 miWest (260°)10.4 mphClear
1:55 PM55.4 °F28.4 °F36 %30.09 in10.0 miSW (230°)11.5 mph16.1 mphClear
2:15 PM57.2 °F28.4 °F33 %30.07 in10.0 miSW (230°)8.1 mphClear
2:35 PM59.0 °F30.2 °F34 %30.07 in10.0 miSW (220°)9.2 mphClear
2:55 PM59.0 °F30.2 °F34 %30.07 in10.0 miWest (270°)6.9 mphClear
3:15 PM59.0 °F28.4 °F31 %30.08 in10.0 miCalmClear
3:35 PM59.0 °F30.2 °F34 %30.09 in10.0 miNW (320°)5.8 mphClear
3:55 PM59.0 °F30.2 °F34 %30.11 in10.0 miNNW (330°)6.9 mphClear
4:15 PM59.0 °F30.2 °F34 %30.12 in10.0 miNW (310°)8.1 mphClear
4:35 PM59.0 °F30.2 °F34 %30.13 in10.0 miNNW (340°)6.9 mphClear
4:55 PM59.0 °F30.2 °F34 %30.14 in10.0 miNorth (360°)5.8 mphClear
5:15 PM59.0 °F30.2 °F34 %30.16 in10.0 miNorth (360°)9.2 mphClear
5:35 PM55.4 °F30.2 °F38 %30.19 in10.0 miNorth (10°)17.3 mph21.9 mphClear
5:55 PM51.8 °F32.0 °F47 %30.21 in10.0 miNorth (10°)13.8 mph19.6 mphClear
6:15 PM50.0 °F32.0 °F50 %30.22 in10.0 miNNE (20°)13.8 mphClear
6:35 PM50.0 °F32.0 °F50 %30.23 in10.0 miNNE (30°)17.3 mph20.7 mphClear
6:55 PM48.2 °F32.0 °F54 %30.24 in10.0 miNE (40°)19.6 mph26.5 mphClear
7:15 PM46.4 °F32.0 °F57 %30.26 in10.0 miNNE (30°)18.4 mph21.9 mphClear
7:35 PM46.4 °F32.0 °F57 %30.27 in10.0 miNE (40°)20.7 mph28.8 mphClear
7:55 PM44.6 °F32.0 °F61 %30.28 in10.0 miNE (40°)19.6 mph27.6 mphClear
8:15 PM42.8 °F32.0 °F66 %30.29 in10.0 miNE (50°)16.1 mph26.5 mphClear
8:35 PM42.8 °F32.0 °F66 %30.31 in10.0 miNE (50°)16.1 mph21.9 mphClear
8:55 PM41.0 °F30.2 °F65 %30.32 in10.0 miNE (50°)11.5 mph25.3 mphClear
9:15 PM37.4 °F30.2 °F75 %30.33 in10.0 miNE (50°)15.0 mph26.5 mphClear
9:35 PM37.4 °F30.2 °F75 %30.34 in10.0 miNE (50°)13.8 mph25.3 mphClear
9:55 PM35.6 °F28.4 °F75 %30.35 in10.0 miNE (40°)12.7 mph23.0 mphClear
10:15 PM33.8 °F28.4 °F81 %30.36 in10.0 miENE (60°)15.0 mph20.7 mphClear
10:35 PM32.0 °F26.6 °F80 %30.37 in10.0 miENE (60°)15.0 mph19.6 mphClear
10:55 PM32.0 °F24.8 °F75 %30.36 in10.0 miENE (60°)16.1 mph21.9 mphClear
11:15 PM32.0 °F23.0 °F69 %30.36 in10.0 miENE (60°)12.7 mph17.3 mphClear
11:35 PM32.0 °F21.2 °F64 %30.36 in10.0 miENE (60°)12.7 mph23.0 mphClear
11:55 PM32.0 °F19.4 °F60 %30.36 in10.0 miENE (60°)11.5 mph19.6 mphClear
Hourly data recorded from KDUC, located miles away from Duncan, Oklahoma







STORIES FROM OUR PARTNERS